FW3266 Scituate MA US current weather conditions

sailwx.info

Wind from 307 at 4 knots gusting 11

Air temperature 4.4° C
Dewpoint -3.3° C

Last reported at 2019-Dec-05 19:57 UTC.
Time now 2019-Dec-05 20:26 UTC

Location: N 42°11' W 070°43'.
View on Google Maps.

See reports from other nearby stations

  
Tides and Currents Weather Stations Pressure Air Temp Water Temp Dewpoint Dewpoint Depression Visibility Wind Speed Wind Dir Waves Ship Positions
date/time (UTC)wind fromknots sea level pressurealtimeterstation pressurevisibilityair tempwater tempwave heightnotes
2019-Dec-05 20:07 307 4 gusting 12 4.4
2019-Dec-05 20:02 271 4 gusting 12 4.4
2019-Dec-05 19:57 307 4 gusting 11 4.4
2019-Dec-05 19:52 287 4 gusting 10 4.4
2019-Dec-05 19:47 297 4 gusting 13 5.0
2019-Dec-05 19:42 284 4 gusting 13 5.0
2019-Dec-05 19:37 311 3 gusting 9 5.0
2019-Dec-05 19:32 327 2 gusting 7 5.0
2019-Dec-05 19:27 335 3 gusting 7 5.0
2019-Dec-05 19:22 298 3 gusting 7 5.0
2019-Dec-05 19:17 286 3 gusting 10 5.0
2019-Dec-05 19:12 288 3 gusting 10 5.0
2019-Dec-05 19:07 322 2 gusting 9 5.0
2019-Dec-05 19:02 295 2 gusting 9 5.0
2019-Dec-05 18:57 325 3 gusting 11 5.0
2019-Dec-05 18:52 317 5 gusting 13 5.0
2019-Dec-05 18:47 355 6 gusting 14 5.6
2019-Dec-05 18:42 328 6 gusting 14 5.6
2019-Dec-05 18:37 294 5 gusting 10 5.6
2019-Dec-05 18:32 355 5 gusting 16 5.6
2019-Dec-05 18:27 331 6 gusting 16 5.6
2019-Dec-05 18:22 005 6 gusting 16 5.6
2019-Dec-05 18:17 322 6 gusting 16 5.6
2019-Dec-05 18:12 339 6 gusting 15 5.6
2019-Dec-05 18:07 309 6 gusting 15 5.6
2019-Dec-05 18:02 324 6 gusting 15 5.6
2019-Dec-05 17:57 307 6 gusting 15 5.6
2019-Dec-05 17:52 328 5 gusting 12 5.6
2019-Dec-05 17:47 312 5 gusting 12 5.6
2019-Dec-05 17:42 298 5 gusting 10 5.6
2019-Dec-05 17:36 272 4 gusting 11 5.6
2019-Dec-05 17:31 269 5 gusting 12 5.6
2019-Dec-05 17:26 351 6 gusting 15 5.6
2019-Dec-05 17:21 334 6 gusting 15 5.6
2019-Dec-05 17:16 333 5 gusting 13 5.6
2019-Dec-05 17:11 322 4 gusting 12 5.6
2019-Dec-05 17:06 348 4 gusting 11 5.6
2019-Dec-05 17:01 306 4 gusting 11 5.6
2019-Dec-05 16:56 306 4 gusting 9 5.6
2019-Dec-05 16:51 318 4 gusting 9 5.6
2019-Dec-05 16:46 284 4 gusting 9 5.6
2019-Dec-05 16:41 290 3 gusting 8 5.6
2019-Dec-05 16:36 311 5 gusting 15 5.6
2019-Dec-05 16:31 305 5 gusting 15 5.6
2019-Dec-05 16:26 297 5 gusting 12 5.6
2019-Dec-05 16:21 284 6 gusting 13 5.6
2019-Dec-05 16:16 271 5 gusting 13 5.6
2019-Dec-05 16:11 289 6 gusting 12 5.6
2019-Dec-05 16:06 293 5 gusting 12 5.6
2019-Dec-05 16:01 321 6 gusting 13 5.0
2019-Dec-05 15:56 275 6 gusting 13 5.0
2019-Dec-05 15:51 281 5 gusting 13 5.0
2019-Dec-05 15:46 330 4 gusting 13 5.0
2019-Dec-05 15:41 311 4 gusting 11 5.0
2019-Dec-05 15:36 292 4 gusting 10 5.0
2019-Dec-05 15:31 302 4 gusting 10 5.0
2019-Dec-05 15:26 331 4 gusting 13 5.0
2019-Dec-05 15:21 286 6 gusting 13 4.4
2019-Dec-05 15:16 342 6 gusting 13 4.4
2019-Dec-05 15:11 320 6 gusting 13 4.4
2019-Dec-05 15:06 328 5 gusting 13 4.4
2019-Dec-05 15:01 305 4 gusting 13 3.9
2019-Dec-05 14:56 306 4 gusting 13 3.9
2019-Dec-05 14:51 314 4 gusting 13 3.3
2019-Dec-05 14:46 314 3 gusting 9 3.3
2019-Dec-05 14:41 290 4 gusting 9 3.3
2019-Dec-05 14:36 355 4 gusting 9 2.8
2019-Dec-05 14:31 294 4 gusting 8 2.8
2019-Dec-05 14:26 304 3 gusting 9 2.2
2019-Dec-05 14:21 276 2 gusting 9 2.2
2019-Dec-05 14:16 290 2 gusting 6 1.7
2019-Dec-05 14:11 302 2 gusting 6 1.1
2019-Dec-05 14:06 293 2 gusting 8 1.1
2019-Dec-05 14:01 296 2 gusting 8 0.6
2019-Dec-05 13:56 289 2 gusting 6 0.6
2019-Dec-05 13:51 309 2 gusting 6 0.6
2019-Dec-05 13:46 290 1 gusting 3 -0.0
2019-Dec-05 13:41 263 1 gusting 3 -0.0
2019-Dec-05 13:36 300 1 gusting 4 -0.0
2019-Dec-05 13:31 285 1 gusting 4 -0.0
2019-Dec-05 13:26 304 1 gusting 3 -0.0
2019-Dec-05 13:21 275 1 gusting 3 -0.6
2019-Dec-05 13:16 301 1 gusting 3 -0.6
2019-Dec-05 13:11 300 1 gusting 3 -0.6
2019-Dec-05 13:06 290 1 gusting 3 -0.6
2019-Dec-05 13:01 290 1 gusting 3 -0.6
2019-Dec-05 12:56 291 1 gusting 4 -1.1
2019-Dec-05 12:51 291 1 gusting 4 -1.1
2019-Dec-05 12:46 290 1 gusting 3 -1.1
2019-Dec-05 12:41 290 1 gusting 2 -1.1
2019-Dec-05 12:36 290 1 gusting 4 -1.1
2019-Dec-05 12:31 290 1 gusting 4 -1.1
2019-Dec-05 12:26 292 1 gusting 3 -1.1
2019-Dec-05 12:21 292 1 gusting 2 -1.1
2019-Dec-05 12:15 292 1 gusting 3 -1.1
2019-Dec-05 12:10 292 1 gusting 3 -1.1
2019-Dec-05 12:05 292 1 gusting 4 -1.1
2019-Dec-05 12:00 292 1 gusting 4 -1.1
2019-Dec-05 11:55 292 1 gusting 3 -1.1
2019-Dec-05 11:50 293 0 gusting 2 -1.1
2019-Dec-05 11:45 293 1 gusting 2 -1.1
2019-Dec-05 11:40 293 1 gusting 2 -1.1
2019-Dec-05 11:35 293 1 gusting 2 -1.1
2019-Dec-05 11:30 292 0 gusting 2 -0.6
2019-Dec-05 11:25 292 0 gusting 1 -0.6
2019-Dec-05 11:20 292 0 gusting 1 -0.6
2019-Dec-05 11:15 292 1 gusting 2 -0.6
2019-Dec-05 11:10 292 1 gusting 2 -0.6
2019-Dec-05 11:05 292 1 gusting 2 -1.1
2019-Dec-05 11:00 292 1 gusting 2 -1.1
2019-Dec-05 10:55 292 1 gusting 2 -1.1
2019-Dec-05 10:50 292 1 gusting 2 -1.1
2019-Dec-05 10:45 292 1 gusting 2 -1.1
2019-Dec-05 10:40 293 1 gusting 2 -0.6
2019-Dec-05 10:35 293 1 gusting 2 -1.1
2019-Dec-05 10:30 293 1 gusting 2 -1.1
2019-Dec-05 10:25 293 1 gusting 3 -1.1
2019-Dec-05 10:20 293 1 gusting 3 -0.6
2019-Dec-05 10:15 294 1 gusting 3 -0.6
2019-Dec-05 10:10 294 1 gusting 4 -0.6
2019-Dec-05 10:05 294 1 gusting 4 -0.6
2019-Dec-05 10:00 302 1 gusting 3 -0.6
2019-Dec-05 09:55 302 1 gusting 3 -0.6
2019-Dec-05 09:50 302 1 gusting 3 -0.6
2019-Dec-05 09:45 302 1 gusting 3 -0.6
2019-Dec-05 09:35 302 1 gusting 2 -0.6
2019-Dec-05 09:30 302 1 gusting 2 -0.6
2019-Dec-05 09:25 302 1 gusting 2 -0.6
2019-Dec-05 09:20 302 1 gusting 2 -0.6
2019-Dec-05 09:15 302 1 gusting 2 -0.6
2019-Dec-05 09:10 302 1 gusting 2 -0.6
2019-Dec-05 09:05 302 1 gusting 2 -0.6
2019-Dec-05 09:00 302 1 gusting 2 -0.6
2019-Dec-05 08:55 302 1 gusting 2 -0.6
2019-Dec-05 08:50 302 1 gusting 2 -0.6
2019-Dec-05 08:45 302 1 gusting 2 -0.6
2019-Dec-05 08:40 302 1 gusting 2 -0.6
2019-Dec-05 08:35 302 1 gusting 2 -0.6
2019-Dec-05 08:30 303 1 gusting 2 -0.6
2019-Dec-05 08:25 303 1 gusting 2 -0.6
2019-Dec-05 08:20 303 1 gusting 3 -0.6
2019-Dec-05 08:15 303 1 gusting 3 -0.6
2019-Dec-05 08:10 303 1 gusting 4 -0.6
2019-Dec-05 08:04 303 1 gusting 6 -0.6
2019-Dec-05 07:59 303 1 gusting 6 -0.6
2019-Dec-05 07:54 303 1 gusting 4 -0.6
2019-Dec-05 07:49 304 1 gusting 6 -0.6
2019-Dec-05 07:44 304 1 gusting 6 -0.6
2019-Dec-05 07:39 305 1 gusting 4 -0.6
2019-Dec-05 07:34 305 1 gusting 3 -0.6
2019-Dec-05 07:29 305 1 gusting 3 -0.6
2019-Dec-05 07:24 305 1 gusting 3 -0.6
2019-Dec-05 07:19 305 1 gusting 3 -0.6
2019-Dec-05 07:14 305 1 gusting 3 -0.6
2019-Dec-05 07:09 305 1 gusting 3 -0.6
2019-Dec-05 07:04 305 1 gusting 2 -0.6
2019-Dec-05 07:00 305 1 gusting 2 -0.6
2019-Dec-05 06:54 305 1 gusting 2 -0.6
2019-Dec-05 06:49 305 1 gusting 2 -0.6
2019-Dec-05 06:44 305 1 gusting 2 -0.6
2019-Dec-05 06:39 305 1 gusting 4 -0.6
2019-Dec-05 06:34 305 1 gusting 4 -0.6
2019-Dec-05 06:29 304 0 gusting 2 -0.0
2019-Dec-05 06:24 304 0 gusting 2 -0.0
2019-Dec-05 06:19 304 1 gusting 2 -0.0
2019-Dec-05 06:14 304 1 gusting 2 -0.0
2019-Dec-05 06:09 304 1 gusting 3 -0.0
2019-Dec-05 06:04 304 1 gusting 3 -0.0
2019-Dec-05 05:59 304 1 gusting 3 -0.0
2019-Dec-05 05:54 304 1 gusting 3 0.6
2019-Dec-05 05:49 304 1 gusting 3 0.6
2019-Dec-05 05:44 304 1 gusting 3 0.6
2019-Dec-05 05:39 304 1 gusting 3 0.6
2019-Dec-05 05:34 304 1 gusting 2 0.6
2019-Dec-05 05:29 304 1 gusting 2 0.6
2019-Dec-05 05:24 304 1 gusting 3 0.6
2019-Dec-05 05:19 304 1 gusting 3 0.6
2019-Dec-05 05:14 304 1 gusting 3 0.6
2019-Dec-05 05:09 304 1 gusting 3 0.6
2019-Dec-05 05:04 309 1 gusting 3 0.6
2019-Dec-05 04:59 309 1 gusting 4 0.6
2019-Dec-05 04:54 309 1 gusting 4 0.6
2019-Dec-05 04:49 311 1 gusting 4 0.6
2019-Dec-05 04:44 312 1 gusting 3 0.6
2019-Dec-05 04:39 312 1 gusting 3 0.6
2019-Dec-05 04:34 312 1 gusting 2 0.6
2019-Dec-05 04:29 312 1 gusting 2 0.6
2019-Dec-05 04:24 312 1 gusting 2 0.6
2019-Dec-05 04:19 312 0 gusting 2 0.6
2019-Dec-05 04:14 312 0 gusting 2 0.6
2019-Dec-05 04:09 312 1 gusting 2 0.6
2019-Dec-05 04:04 312 1 gusting 2 0.6
2019-Dec-05 03:59 312 1 gusting 2 0.6
2019-Dec-05 03:54 312 1 gusting 2 0.6
2019-Dec-05 03:49 312 0 gusting 2 0.6
2019-Dec-05 03:44 312 1 gusting 2 0.6
2019-Dec-05 03:39 312 1 gusting 3 0.6
2019-Dec-05 03:34 312 1 gusting 3 0.6
2019-Dec-05 03:29 312 1 gusting 2 0.6
2019-Dec-05 03:24 312 0 gusting 2 0.6
2019-Dec-05 03:19 312 0 gusting 1 0.6
2019-Dec-05 03:14 312 0.6
2019-Dec-05 03:09 312 0.6
2019-Dec-05 03:04 312 0.6
2019-Dec-05 02:59 312 0.6
2019-Dec-05 02:54 312 0.6
2019-Dec-05 02:49 312 0.6
2019-Dec-05 02:44 312 0.6
2019-Dec-05 02:39 312 0.6
2019-Dec-05 02:34 312 0.6
2019-Dec-05 02:29 312 0.6
2019-Dec-05 02:24 312 0.6
2019-Dec-05 02:19 312 0.6
2019-Dec-05 02:14 312 0.6
2019-Dec-05 02:09 312 0 gusting 4 1.1
2019-Dec-05 02:04 296 1 gusting 3 1.1
2019-Dec-05 01:59 279 0 gusting 3 0.6
2019-Dec-05 01:54 306 0 gusting 3 0.6
2019-Dec-05 01:49 307 0 gusting 3 1.1
2019-Dec-05 01:43 307 1 gusting 3 1.1
2019-Dec-05 01:38 286 1 gusting 3 1.1
2019-Dec-05 01:33 285 0 gusting 4 1.1
2019-Dec-05 01:28 252 1 gusting 4 1.1
2019-Dec-05 01:23 259 1 gusting 2 1.1
2019-Dec-05 01:18 261 1 gusting 2 0.6
2019-Dec-05 01:13 263 0 gusting 2 0.6
2019-Dec-05 01:08 266 0 gusting 1 0.6
2019-Dec-05 01:03 254 0 gusting 2 0.6
2019-Dec-05 00:58 254 0 gusting 2 0.6
2019-Dec-05 00:53 304 0.6
2019-Dec-05 00:48 304 0.6
2019-Dec-05 00:43 304 0.6
2019-Dec-05 00:38 304 0.6
2019-Dec-05 00:33 304 0.6
2019-Dec-05 00:28 304 0.6
2019-Dec-05 00:23 304 0.6
2019-Dec-05 00:18 304 0 gusting 2 0.6
2019-Dec-05 00:13 304 0 gusting 2 0.6
2019-Dec-05 00:08 304 0 gusting 1 0.6
2019-Dec-05 00:03 304 0.6
2019-Dec-04 23:58 304 0.6
2019-Dec-04 23:53 304 0.6
2019-Dec-04 23:48 304 0 gusting 2 0.6
2019-Dec-04 23:43 304 0 gusting 2 0.6
2019-Dec-04 23:38 309 0 gusting 2 0.6
2019-Dec-04 23:33 309 0 gusting 2 0.6
2019-Dec-04 23:28 309 0 gusting 1 0.6
2019-Dec-04 23:23 309 0 gusting 1 1.1
2019-Dec-04 23:18 309 1 gusting 3 1.1
2019-Dec-04 23:13 309 1 gusting 3 1.1
2019-Dec-04 23:08 302 0 gusting 3 1.1
2019-Dec-04 23:03 294 1 gusting 3 1.1
2019-Dec-04 22:58 287 1 gusting 3 1.1
2019-Dec-04 22:53 290 1 gusting 3 1.1
2019-Dec-04 22:48 257 1 gusting 2 1.1
2019-Dec-04 22:43 267 0 gusting 2 1.1
2019-Dec-04 22:38 267 0 gusting 2 1.1
2019-Dec-04 22:33 240 1.1
2019-Dec-04 22:28 240 1.1
2019-Dec-04 22:23 240 1.1
2019-Dec-04 22:18 240 1.1
2019-Dec-04 22:13 240 1.1
2019-Dec-04 22:08 240 1.1
2019-Dec-04 22:03 240 0.6
2019-Dec-04 21:58 240 1.1
2019-Dec-04 21:53 240 1.1
2019-Dec-04 21:48 240 1.1
2019-Dec-04 21:43 240 1.1
2019-Dec-04 21:38 240 0 gusting 1 1.1
2019-Dec-04 21:33 240 0 gusting 1 1.1
2019-Dec-04 21:28 240 0 gusting 1 1.1
2019-Dec-04 21:23 240 1.1
2019-Dec-04 21:18 240 0 gusting 1 1.1
2019-Dec-04 21:13 240 0 gusting 1 1.1
2019-Dec-04 21:08 240 1.1
2019-Dec-04 21:02 240 1.1
2019-Dec-04 20:57 240 0 gusting 0 1.1
2019-Dec-04 20:52 240 1.1
2019-Dec-04 20:47 240 1.7
2019-Dec-04 20:42 240 0 gusting 2 1.7
2019-Dec-04 20:37 240 0 gusting 2 1.7
2019-Dec-04 20:32 240 0 gusting 1 1.7
2019-Dec-04 20:27 240 0 gusting 2 1.7
2019-Dec-04 20:22 240 1.7
2019-Dec-04 20:17 240 1.7
2019-Dec-04 20:12 240 1.7
2019-Dec-04 20:07 240 0 gusting 1 2.2
2019-Dec-04 20:02 240 0 gusting 2 2.2
2019-Dec-04 19:57 240 0 gusting 2 2.2
2019-Dec-04 19:52 240 0 gusting 2 2.2
2019-Dec-04 19:47 240 0 gusting 2 2.2
2019-Dec-04 19:42 240 0 gusting 1 2.2
2019-Dec-04 19:37 240 0 gusting 2 2.2
2019-Dec-04 19:32 240 1 gusting 2 2.2
2019-Dec-04 19:27 257 0 gusting 2 2.2
2019-Dec-04 19:22 241 0 gusting 2 2.2
2019-Dec-04 19:17 250 0 gusting 2 2.2
2019-Dec-04 19:12 250 0 gusting 2 2.2
2019-Dec-04 19:07 265 0 gusting 1 2.2
2019-Dec-04 19:02 265 1 gusting 2 2.2
2019-Dec-04 18:57 265 1 gusting 2 2.2
2019-Dec-04 18:52 265 1 gusting 2 2.2
2019-Dec-04 18:47 269 0 gusting 2 2.2
2019-Dec-04 18:42 269 0 gusting 1 2.2
2019-Dec-04 18:37 269 0 gusting 2 2.2
2019-Dec-04 18:32 269 1 gusting 2 2.2
2019-Dec-04 18:27 269 1 gusting 5 2.2
2019-Dec-04 18:22 269 1 gusting 5 2.2
2019-Dec-04 18:17 273 1 gusting 2 2.2
2019-Dec-04 18:12 266 1 gusting 5 2.2
2019-Dec-04 18:07 279 2 gusting 5 2.2
2019-Dec-04 18:02 296 1 gusting 6 2.2
2019-Dec-04 17:57 259 2 gusting 6 2.2
2019-Dec-04 17:52 271 2 gusting 7 2.2
2019-Dec-04 17:47 289 2 gusting 7 2.2
2019-Dec-04 17:42 291 2 gusting 6 2.2
2019-Dec-04 17:37 326 1 gusting 6 2.2
2019-Dec-04 17:32 270 1 gusting 6 2.2
2019-Dec-04 17:27 295 2 gusting 6 2.2
2019-Dec-04 17:22 296 3 gusting 6 1.7
2019-Dec-04 17:17 269 3 gusting 6 1.7
2019-Dec-04 17:12 281 3 gusting 6 2.2
2019-Dec-04 17:07 288 2 gusting 6 2.2
2019-Dec-04 17:02 285 2 gusting 6 2.2
2019-Dec-04 16:57 282 1 gusting 6 1.7
2019-Dec-04 16:52 292 2 gusting 8 1.7
2019-Dec-04 16:47 293 2 gusting 8 1.7
2019-Dec-04 16:42 288 2 gusting 5 1.7
2019-Dec-04 16:37 298 2 gusting 8 1.7
2019-Dec-04 16:32 288 2 gusting 8 1.7
2019-Dec-04 16:27 274 2 gusting 6 1.1
2019-Dec-04 16:22 265 2 gusting 6 1.1
2019-Dec-04 16:17 236 1 gusting 5 1.1
2019-Dec-04 16:12 279 2 gusting 5 1.1
2019-Dec-04 16:07 263 2 gusting 3 1.1
2019-Dec-04 16:02 263 2 gusting 3 1.1
2019-Dec-04 15:57 278 2 gusting 5 0.6
2019-Dec-04 15:52 267 2 gusting 5 0.6
2019-Dec-04 15:47 261 1 gusting 3 -0.0
2019-Dec-04 15:42 239 1 gusting 4 -0.0
2019-Dec-04 15:37 295 1 gusting 4 -0.0
2019-Dec-04 15:32 282 1 gusting 3 -0.6
2019-Dec-04 15:27 259 1 gusting 3 -0.6
2019-Dec-04 15:22 284 1 gusting 3 -0.6
2019-Dec-04 15:17 293 1 gusting 3 -0.6
2019-Dec-04 15:12 295 1 gusting 3 -0.6
2019-Dec-04 15:06 286 1 gusting 3 -0.6
2019-Dec-04 15:02 270 1 gusting 3 -0.6
2019-Dec-04 14:57 264 1 gusting 2 -0.6
2019-Dec-04 14:52 271 1 gusting 5 -0.6
2019-Dec-04 14:47 271 1 gusting 5 -1.1
2019-Dec-04 14:41 265 1 gusting 6 -1.1
2019-Dec-04 14:36 252 1 gusting 6 -1.1
2019-Dec-04 14:31 294 1 gusting 4 -1.1
2019-Dec-04 14:26 282 1 gusting 5 -1.7
2019-Dec-04 14:21 286 2 gusting 6 -1.7
2019-Dec-04 14:16 315 2 gusting 6 -1.7
2019-Dec-04 14:11 288 1 gusting 4 -1.7
2019-Dec-04 14:06 272 1 gusting 4 -2.2
2019-Dec-04 14:01 288 1 gusting 3 -2.2
2019-Dec-04 13:56 278 1 gusting 3 -2.2
2019-Dec-04 13:51 273 1 gusting 3 -2.8
2019-Dec-04 13:46 259 1 gusting 3 -2.8
2019-Dec-04 13:41 259 1 gusting 3 -2.8
2019-Dec-04 13:36 300 1 gusting 4 -2.8
2019-Dec-04 13:31 294 1 gusting 4 -3.3
2019-Dec-04 13:26 280 1 gusting 5 -3.3
2019-Dec-04 13:21 300 2 gusting 5 -3.3
2019-Dec-04 13:16 279 1 gusting 5 -3.3
2019-Dec-04 13:11 284 1 gusting 5 -3.3
2019-Dec-04 13:06 290 1 gusting 4 -3.3
2019-Dec-04 13:01 296 0 gusting 4 -3.9
2019-Dec-04 12:56 290 1 gusting 2 -3.9
2019-Dec-04 12:51 290 1 gusting 3 -3.9
2019-Dec-04 12:46 290 1 gusting 3 -3.9
2019-Dec-04 12:41 294 1 gusting 2 -3.9
2019-Dec-04 12:36 247 1 gusting 2 -3.9
2019-Dec-04 12:31 284 1 gusting 2 -3.9
2019-Dec-04 12:26 286 1 gusting 3 -3.9
2019-Dec-04 12:21 291 1 gusting 3 -4.4
2019-Dec-04 12:16 291 1 gusting 4 -4.4
2019-Dec-04 12:11 290 1 gusting 4 -3.9
2019-Dec-04 12:06 269 1 gusting 2 -3.9
2019-Dec-04 12:01 259 1 gusting 3 -3.9
2019-Dec-04 11:56 292 1 gusting 3 -4.4
2019-Dec-04 11:51 277 1 gusting 3 -4.4
2019-Dec-04 11:46 257 1 gusting 3 -4.4
2019-Dec-04 11:41 288 0 gusting 2 -4.4
2019-Dec-04 11:36 288 1 gusting 2 -4.4
2019-Dec-04 11:31 288 1 gusting 4 -4.4
2019-Dec-04 11:26 295 1 gusting 4 -4.4
2019-Dec-04 11:21 294 1 gusting 2 -4.4
2019-Dec-04 11:16 294 1 gusting 2 -4.4
2019-Dec-04 11:11 294 1 gusting 3 -4.4
2019-Dec-04 11:06 295 1 gusting 3 -4.4
2019-Dec-04 11:01 295 1 gusting 4 -4.4
2019-Dec-04 10:56 297 1 gusting 4 -4.4
2019-Dec-04 10:51 295 1 gusting 3 -4.4
2019-Dec-04 10:46 292 1 gusting 6 -4.4
2019-Dec-04 10:41 296 1 gusting 6 -4.4
2019-Dec-04 10:35 294 1 gusting 6 -4.4
2019-Dec-04 10:30 291 2 gusting 6 -4.4
2019-Dec-04 10:25 294 2 gusting 5 -4.4
2019-Dec-04 10:20 294 2 gusting 5 -4.4
2019-Dec-04 10:15 296 2 gusting 4 -4.4
2019-Dec-04 10:10 288 2 gusting 4 -4.4
2019-Dec-04 10:05 295 1 gusting 4 -4.4
2019-Dec-04 10:00 308 1 gusting 2 -4.4
2019-Dec-04 09:55 292 1 gusting 3 -4.4
2019-Dec-04 09:50 290 1 gusting 4 -4.4
2019-Dec-04 09:45 287 1 gusting 4 -4.4
2019-Dec-04 09:40 300 1 gusting 3 -3.9
2019-Dec-04 09:35 262 1 gusting 3 -3.9
2019-Dec-04 09:30 295 1 gusting 2 -3.9
2019-Dec-04 09:25 295 1 gusting 4 -3.9
2019-Dec-04 09:20 287 1 gusting 4 -3.9
2019-Dec-04 09:15 292 1 gusting 3 -3.9
2019-Dec-04 09:10 290 1 gusting 4 -3.9
2019-Dec-04 09:05 287 1 gusting 4 -3.9
2019-Dec-04 09:00 297 1 gusting 3 -3.9
2019-Dec-04 08:55 296 1 gusting 3 -3.9
2019-Dec-04 08:50 296 1 gusting 3 -3.9
2019-Dec-04 08:45 300 1 gusting 3 -3.9
2019-Dec-04 08:40 300 1 gusting 3 -4.4
2019-Dec-04 08:35 300 1 gusting 2 -4.4
2019-Dec-04 08:30 300 1 gusting 2 -4.4
2019-Dec-04 08:25 317 0 gusting 2 -4.4
2019-Dec-04 08:20 317 0 gusting 2 -4.4
2019-Dec-04 08:15 317 0 gusting 2 -4.4
2019-Dec-04 08:10 300 0 gusting 2 -4.4
2019-Dec-04 08:05 300 0 gusting 2 -4.4
2019-Dec-04 08:00 300 1 gusting 5 -4.4
2019-Dec-04 07:55 300 1 gusting 5 -4.4
2019-Dec-04 07:50 290 1 gusting 4 -4.4
2019-Dec-04 07:45 290 1 gusting 4 -4.4
2019-Dec-04 07:40 302 0 gusting 3 -4.4
2019-Dec-04 07:35 290 0 gusting 1 -4.4
2019-Dec-04 07:30 290 0 gusting 1 -4.4
2019-Dec-04 07:25 290 0 gusting 1 -4.4
2019-Dec-04 07:20 290 0 gusting 1 -4.4
2019-Dec-04 07:15 290 0 gusting 1 -3.9
2019-Dec-04 07:10 290 0 gusting 1 -3.9
2019-Dec-04 07:05 290 0 gusting 3 -3.9
2019-Dec-04 07:00 290 0 gusting 3 -3.9
2019-Dec-04 06:55 282 1 gusting 3 -3.9
2019-Dec-04 06:50 275 1 gusting 3 -3.9
2019-Dec-04 06:45 300 1 gusting 3 -3.9
2019-Dec-04 06:40 304 1 gusting 3 -3.9
2019-Dec-04 06:35 309 1 gusting 3 -3.3
2019-Dec-04 06:30 289 0 gusting 2 -3.3
2019-Dec-04 06:25 289 0 gusting 2 -3.3
2019-Dec-04 06:20 289 0 gusting 2 -3.3
2019-Dec-04 06:15 290 0 gusting 2 -3.3
2019-Dec-04 06:10 282 0 gusting 1 -3.3
2019-Dec-04 06:05 282 0 gusting 2 -3.3
2019-Dec-04 06:00 281 0 gusting 2 -3.3
2019-Dec-04 05:55 298 1 gusting 3 -3.3
2019-Dec-04 05:50 291 1 gusting 3 -3.3
2019-Dec-04 05:45 261 1 gusting 3 -3.3
2019-Dec-04 05:40 299 1 gusting 3 -3.3
2019-Dec-04 05:35 306 1 gusting 4 -3.3
2019-Dec-04 05:29 306 1 gusting 4 -3.3
2019-Dec-04 05:24 336 0 gusting 3 -3.3
2019-Dec-04 05:20 336 1 gusting 3 -2.8
2019-Dec-04 05:14 331 1 gusting 5 -2.8
2019-Dec-04 05:09 302 1 gusting 5 -2.8
2019-Dec-04 05:05 315 1 gusting 4 -2.8
2019-Dec-04 04:59 332 1 gusting 4 -2.8
2019-Dec-04 04:55 293 0 gusting 3 -2.8
2019-Dec-04 04:49 303 0 gusting 3 -2.8
2019-Dec-04 04:44 301 1 gusting 6 -2.8
2019-Dec-04 04:39 302 1 gusting 6 -2.8
2019-Dec-04 04:34 317 1 gusting 6 -2.8
2019-Dec-04 04:29 290 1 gusting 6 -2.2
2019-Dec-04 04:24 326 1 gusting 7 -2.2
2019-Dec-04 04:19 316 1 gusting 7 -2.2
2019-Dec-04 04:14 269 2 gusting 7 -2.2
2019-Dec-04 04:09 319 2 gusting 7 -2.2
2019-Dec-04 04:04 311 1 gusting 7 -2.2
2019-Dec-04 03:59 265 1 gusting 5 -2.2
2019-Dec-04 03:54 271 1 gusting 5 -2.2
2019-Dec-04 03:49 281 1 gusting 5 -2.2
2019-Dec-04 03:44 321 1 gusting 7 -2.2
2019-Dec-04 03:39 301 1 gusting 7 -2.2
2019-Dec-04 03:34 326 1 gusting 5 -2.2
2019-Dec-04 03:29 301 2 gusting 10 -2.2
2019-Dec-04 03:24 301 2 gusting 10 -2.2
2019-Dec-04 03:19 293 2 gusting 5 -2.2
2019-Dec-04 03:14 343 2 gusting 6 -2.2
2019-Dec-04 03:09 314 2 gusting 6 -2.2
2019-Dec-04 03:04 292 2 gusting 6 -2.2
2019-Dec-04 02:59 313 2 gusting 9 -2.2
2019-Dec-04 02:54 005 2 gusting 9 -2.2
2019-Dec-04 02:49 333 2 gusting 9 -2.2
2019-Dec-04 02:44 306 2 gusting 6 -1.7
2019-Dec-04 02:39 329 1 gusting 4 -1.7
2019-Dec-04 02:34 290 2 gusting 7 -1.7
2019-Dec-04 02:29 336 2 gusting 7 -1.7
2019-Dec-04 02:24 327 2 gusting 8 -1.7
2019-Dec-04 02:19 323 2 gusting 8 -1.7
2019-Dec-04 02:14 319 2 gusting 8 -1.7
2019-Dec-04 02:09 324 2 gusting 6 -1.7
2019-Dec-04 02:04 325 3 gusting 11 -1.7
2019-Dec-04 01:59 303 4 gusting 11 -1.1
2019-Dec-04 01:54 340 4 gusting 14 -1.1
2019-Dec-04 01:49 284 4 gusting 14 -1.1
2019-Dec-04 01:44 305 5 gusting 12 -1.1
2019-Dec-04 01:39 313 4 gusting 13 -1.1
2019-Dec-04 01:34 316 4 gusting 13 -1.1
2019-Dec-04 01:29 347 4 gusting 11 -1.1
2019-Dec-04 01:24 334 4 gusting 12 -1.1
2019-Dec-04 01:19 -1.1
2019-Dec-04 01:14 338 4 gusting 11 -1.1
2019-Dec-04 01:09 079 4 gusting 11 -0.6
2019-Dec-04 01:04 338 5 gusting 13 -0.6
2019-Dec-04 00:59 331 4 gusting 13 -0.6
2019-Dec-04 00:54 325 4 gusting 13 -0.6
2019-Dec-04 00:49 310 4 gusting 11 -0.6
2019-Dec-04 00:44 292 3 gusting 11 -0.6
2019-Dec-04 00:39 331 4 gusting 10 -0.6
2019-Dec-04 00:34 319 5 gusting 14 -0.6
2019-Dec-04 00:29 310 5 gusting 14 -0.6
2019-Dec-04 00:24 -0.6
2019-Dec-04 00:19 331 6 gusting 18 -0.6
2019-Dec-04 00:14 340 6 gusting 18 -0.6
2019-Dec-04 00:09 313 5 gusting 13 -0.0
2019-Dec-04 00:04 082 5 gusting 13 -0.0
2019-Dec-03 23:59 283 5 gusting 15 -0.0
2019-Dec-03 23:54 309 6 gusting 16 -0.0
2019-Dec-03 23:49 005 5 gusting 16 -0.0
2019-Dec-03 23:44 -0.6
2019-Dec-03 23:38 304 5 gusting 15 -0.6
2019-Dec-03 23:33 340 5 gusting 15 -0.6
2019-Dec-03 23:28 342 4 gusting 12 -0.6
2019-Dec-03 23:23 342 4 gusting 12 -0.6
2019-Dec-03 23:18 344 3 gusting 11 -0.6
2019-Dec-03 23:13 336 4 gusting 11 -0.6
2019-Dec-03 23:08 346 4 gusting 12 -0.6
2019-Dec-03 23:03 300 5 gusting 13 -0.6
2019-Dec-03 22:58 317 6 gusting 16 -0.0
2019-Dec-03 22:53 311 5 gusting 16 -0.0
2019-Dec-03 22:48 311 4 gusting 9 -0.0
2019-Dec-03 22:43 325 4 gusting 17 -0.0
2019-Dec-03 22:38 005 4 gusting 17 -0.0
2019-Dec-03 22:33 267 5 gusting 12 -0.0
2019-Dec-03 22:28 329 5 gusting 12 -0.6
2019-Dec-03 22:23 005 4 gusting 12 -0.6
2019-Dec-03 22:18 286 5 gusting 13 -0.6
2019-Dec-03 22:13 333 5 gusting 13 -0.6
2019-Dec-03 22:08 005 5 gusting 12 -0.6
2019-Dec-03 22:03 322 5 gusting 12 -0.6
2019-Dec-03 21:58 332 4 gusting 11 -0.6
2019-Dec-03 21:53 347 4 gusting 13 -0.6
2019-Dec-03 21:48 331 5 gusting 14 -0.6
2019-Dec-03 21:43 005 6 gusting 14 -0.6
2019-Dec-03 21:38 340 5 gusting 13 -0.6
2019-Dec-03 21:33 022 5 gusting 13 -0.6
2019-Dec-03 21:28 293 5 gusting 13 -0.6
2019-Dec-03 21:23 327 5 gusting 13 -0.6
2019-Dec-03 21:18 334 5 gusting 13 -0.6
2019-Dec-03 21:13 328 5 gusting 10 -0.6
2019-Dec-03 21:08 345 5 gusting 10 -0.6
2019-Dec-03 21:03 312 5 gusting 12 -0.6
2019-Dec-03 20:58 281 5 gusting 14 -0.6
2019-Dec-03 20:53 318 6 gusting 15 -0.6
2019-Dec-03 20:48 337 7 gusting 16 -0.6
2019-Dec-03 20:43 049 6 gusting 16 -0.6
2019-Dec-03 20:38 334 6 gusting 15 -0.0
2019-Dec-03 20:33 323 6 gusting 15 -0.0
2019-Dec-03 20:28 306 6 gusting 14 -0.0
2019-Dec-03 20:23 299 6 gusting 13 -0.0
2019-Dec-03 20:18 326 7 gusting 18 -0.0
2019-Dec-03 20:13 028 7 gusting 18 -0.0
2019-Dec-03 20:08 329 6 gusting 14 -0.0
2019-Dec-03 20:03 300 6 gusting 14 -0.0